Location: G�ppingen
(48.7089°N, 9.6563°E)
Time: 04:35:26
(UTC+01:00)

XW-2C - Visible Passes

Search period start: 19 March 2019 00:00
Search period end: 29 March 2019 00:00
Orbit: 508 x 530 km, 97.5° (Epoch: 18 March)

Date Brightness Start Highest point End Pass type
(mag) Time Alt. Az. Time Alt. Az. Time Alt. Az.
23 Mar ? 05:40:04 10° NE 05:43:04 22° E 05:46:03 10° SSE visible
24 Mar ? 05:26:49 10° NE 05:29:14 16° E 05:31:38 10° SE visible
25 Mar ? 05:14:00 10° ENE 05:15:22 12° E 05:16:42 10° ESE visible
